Location: Kitt Peak
(31.9514°N, 111.6156°W)
Time: 07:57:17
(UTC-07:00)

ISS - Visible Passes

Search period start: 04 December 2021 00:00
Search period end: 14 December 2021 00:00
Orbit: 417 x 423 km, 51.6° (Epoch: 04 December)

Date Brightness Start Highest point End Pass type
(mag) Time Alt. Az. Time Alt. Az. Time Alt. Az.
05 Dec -2.0 18:36:19 10° NNW 18:38:02 18° NNE 18:38:02 18° NNE visible
06 Dec -1.7 17:49:34 10° N 17:51:16 13° NNE 17:52:57 10° ENE visible
06 Dec -1.5 19:25:01 10° NW 19:26:24 22° WNW 19:26:24 22° WNW visible
07 Dec -3.9 18:37:30 10° NW 18:40:51 65° NE 18:42:05 35° ESE visible
08 Dec -3.0 17:50:09 10° NNW 17:53:16 34° NE 17:56:22 10° ESE visible
08 Dec -0.8 19:27:41 10° W 19:29:49 16° SW 19:31:27 12° SSW visible
09 Dec -1.7 18:39:23 10° WNW 18:42:23 30° SW 18:45:21 10° SSE visible
10 Dec -3.2 17:51:30 10° NW 17:54:50 62° SW 17:58:09 10° SE visible
12 Dec -0.4 17:53:51 10° W 17:56:01 16° SW 17:58:10 10° SSW visible
